Sigfox identifier Datetime Temperature Humidity SNR
003BFE7A 2019-02-20 13:40:14 20.8 24 23.9
003BFE7A 2019-02-20 13:06:57 20.8 25 23.9
003BFE7A 2019-02-20 12:33:35 20.8 25 23.1
003BFE7A 2019-02-20 12:00:19 20.8 26 23.2
003BFE7A 2019-02-20 11:26:55 20.8 27 22.4
003BFE7A 2019-02-20 10:53:36 20.8 27 21.5
003BFE7A 2019-02-20 09:46:56 20.7 27 21.5
003BFE7A 2019-02-20 09:13:36 20.7 27 20.3
003BFE7A 2019-02-20 08:40:19 20.7 27 18.6
003BFE7A 2019-02-20 08:07:05 20.7 27 18.6
003BFE7A 2019-02-20 07:33:43 20.7 27 18.6
003BFE7A 2019-02-20 07:00:24 20.7 27 18.5
003BFE7A 2019-02-20 06:27:05 20.7 27 18.4
003BFE7A 2019-02-20 05:53:46 20.7 27 18.4
003BFE7A 2019-02-20 05:20:27 20.7 27 18.4
003BFE7A 2019-02-20 04:47:10 20.7 27 18.6
003BFE7A 2019-02-20 04:13:50 20.7 27 18.5
003BFE7A 2019-02-20 03:40:29 20.8 27 18.2
003BFE7A 2019-02-20 03:07:10 20.8 27 20.2
003BFE7A 2019-02-20 02:33:50 20.8 27 20.2
003BFE7A 2019-02-20 02:00:30 20.8 27 20.3
003BFE7A 2019-02-20 01:27:11 20.8 27 20.2
003BFE7A 2019-02-20 00:53:52 20.8 27 20.2
003BFE7A 2019-02-20 00:20:32 20.8 27 20.1
003BFE7A 2019-02-19 23:47:13 20.8 27 21.5
003BFE7A 2019-02-19 23:13:54 20.8 27 21.5
003BFE7A 2019-02-19 22:40:35 20.8 27 21.5
003BFE7A 2019-02-19 22:07:19 20.8 27 21.5
003BFE7A 2019-02-19 21:33:57 20.8 27 21.5
003BFE7A 2019-02-19 21:00:39 20.9 27 21.5
003BFE7A 2019-02-19 20:27:18 20.9 27 21.4
003BFE7A 2019-02-19 19:53:58 20.9 27 21.6
003BFE7A 2019-02-19 19:20:38 21 27 21.4
003BFE7A 2019-02-19 18:47:19 21 27 21.4
003BFE7A 2019-02-19 18:13:19 21.1 27 21.4
003BFE7A 2019-02-19 17:40:00 21.1 27 21.4
003BFE7A 2019-02-19 17:06:40 21.1 28 21.4
003BFE7A 2019-02-19 16:33:21 21.1 28 21.5
003BFE7A 2019-02-19 16:00:02 21.1 28 21.6
003BFE7A 2019-02-19 15:26:44 21.1 27 21.7
003BFE7A 2019-02-19 14:53:23 21.1 27 21.7
003BFE7A 2019-02-19 14:20:04 21.1 27 21.8
003BFE7A 2019-02-19 13:46:46 21.1 27 21.7
003BFE7A 2019-02-19 13:13:25 21 27 20.4
003BFE7A 2019-02-19 12:40:07 21 27 20.6
003BFE7A 2019-02-19 12:06:46 21 27 20.6
003BFE7A 2019-02-19 11:33:30 21 27 20.7
003BFE7A 2019-02-19 10:26:51 20.9 26 20.6
003BFE7A 2019-02-19 09:53:31 20.8 26 20.8
003BFE7A 2019-02-19 09:20:12 20.8 26 19
003BFE7A 2019-02-19 08:46:53 20.8 26 19.2
003BFE7A 2019-02-19 08:13:35 20.8 25 19.1
003BFE7A 2019-02-19 07:40:15 20.8 25 19
003BFE7A 2019-02-19 07:06:56 20.8 25 19.3
003BFE7A 2019-02-19 06:33:36 20.8 25 19
003BFE7A 2019-02-19 06:00:18 20.8 25 19
003BFE7A 2019-02-19 05:26:59 20.8 25 20.5
003BFE7A 2019-02-19 04:53:41 20.8 25 20.5
003BFE7A 2019-02-19 04:20:22 20.8 24 20.4
003BFE7A 2019-02-19 03:47:02 20.8 24 20.5
003BFE7A 2019-02-19 03:13:44 20.8 24 20.4
003BFE7A 2019-02-19 02:40:25 20.8 24 20.8
003BFE7A 2019-02-19 02:07:05 20.8 24 20.8
003BFE7A 2019-02-19 01:33:48 20.7 24 20.7
003BFE7A 2019-02-19 01:00:25 20.8 24 21
003BFE7A 2019-02-19 00:27:08 20.8 24 21.1
003BFE7A 2019-02-18 23:53:47 20.8 23 21.1
003BFE7A 2019-02-18 23:20:29 20.8 23 21.3
003BFE7A 2019-02-18 22:47:11 20.8 23 21.5
003BFE7A 2019-02-18 22:13:52 20.8 23 21.4
003BFE7A 2019-02-18 21:40:33 20.8 23 21.7
003BFE7A 2019-02-18 21:07:14 20.8 23 21.8
003BFE7A 2019-02-18 20:33:54 20.8 22 22.1
003BFE7A 2019-02-18 20:00:35 20.9 22 22.1
003BFE7A 2019-02-18 19:27:18 20.9 22 22.4
003BFE7A 2019-02-18 18:53:58 20.9 22 22.3
003BFE7A 2019-02-18 18:20:39 20.9 22 22.4
003BFE7A 2019-02-18 17:47:20 21 22 22.5
003BFE7A 2019-02-18 17:14:01 21 22 22.5
003BFE7A 2019-02-18 16:07:23 21 21 22.7
003BFE7A 2019-02-18 15:34:04 21.1 21 22.8
003BFE7A 2019-02-18 15:00:45 21.1 21 22
003BFE7A 2019-02-18 14:26:44 21.1 21 22
003BFE7A 2019-02-18 13:53:26 21.1 20 22.2
003BFE7A 2019-02-18 13:20:07 21.2 20 22.3
003BFE7A 2019-02-18 12:46:46 21.3 19 22.5
003BFE7A 2019-02-18 12:13:29 21.4 19 22.5
003BFE7A 2019-02-18 11:40:07 21.4 19 22.5
003BFE7A 2019-02-18 11:06:48 21.4 19 22.4
003BFE7A 2019-02-18 10:33:29 21.4 19 22.3
003BFE7A 2019-02-18 10:00:09 21.3 19 22.3
003BFE7A 2019-02-18 09:26:50 21.3 19 22.3
003BFE7A 2019-02-18 08:53:32 21.2 19 22.3
003BFE7A 2019-02-18 08:20:12 21.2 18 22.2
003BFE7A 2019-02-18 07:46:52 21.1 18 22.2
003BFE7A 2019-02-18 07:13:33 21 18 22.1
003BFE7A 2019-02-18 06:40:14 21 18 21.9
003BFE7A 2019-02-18 06:06:54 21 18 21.7
003BFE7A 2019-02-18 05:33:36 21 18 21.7
003BFE7A 2019-02-18 05:00:18 21 18 21.7
003BFE7A 2019-02-18 04:26:58 21 18 21.8
003BFE7A 2019-02-18 03:53:39 21 18 21.8
003BFE7A 2019-02-18 03:20:21 21 18 21.8
003BFE7A 2019-02-18 02:47:02 21 19 21.9
003BFE7A 2019-02-18 02:13:43 21 19 21.7
003BFE7A 2019-02-18 01:40:24 21 19 22.6
003BFE7A 2019-02-18 01:07:04 21 19 22.6
003BFE7A 2019-02-18 00:33:44 21.1 19 22.6
003BFE7A 2019-02-18 00:00:25 21.1 19 22.6
003BFE7A 2019-02-17 23:27:06 21.1 19 22.6
003BFE7A 2019-02-17 22:53:46 21.1 19 22.5
003BFE7A 2019-02-17 22:20:26 21 19 22.3
003BFE7A 2019-02-17 21:47:06 21 19 22.3
003BFE7A 2019-02-17 21:13:45 21 20 22.4
003BFE7A 2019-02-17 20:40:26 21 19 22.4
003BFE7A 2019-02-17 20:07:07 21.1 19 22.4
003BFE7A 2019-02-17 19:33:48 21.1 20 22.5
003BFE7A 2019-02-17 19:00:28 21.1 20 22.5
003BFE7A 2019-02-17 18:27:08 21 20 22.5
003BFE7A 2019-02-17 17:53:48 21.1 20 22.6
003BFE7A 2019-02-17 17:20:27 21.1 20 22.6
003BFE7A 2019-02-17 16:47:07 21.1 20 22.7
003BFE7A 2019-02-17 16:13:47 21.1 20 22.7
003BFE7A 2019-02-17 15:40:27 21.1 20 22.8
003BFE7A 2019-02-17 15:07:06 21.1 20 22.7
003BFE7A 2019-02-17 14:33:44 21.1 20 22.8
003BFE7A 2019-02-17 14:00:24 21.2 20 22.9
003BFE7A 2019-02-17 13:27:03 21.2 20 22.9
003BFE7A 2019-02-17 12:53:43 21.2 20 22.7
003BFE7A 2019-02-17 12:20:23 21.2 21 22.8
003BFE7A 2019-02-17 11:47:04 21.2 21 22.1
003BFE7A 2019-02-17 11:13:44 21.1 21 22.2
003BFE7A 2019-02-17 10:39:42 21.1 21 22.3
003BFE7A 2019-02-17 10:06:22 21.1 21 22.5
003BFE7A 2019-02-17 09:33:03 21.1 21 22.4
003BFE7A 2019-02-17 08:59:42 21.1 21 22.5
003BFE7A 2019-02-17 08:26:22 21.1 21 22.5
003BFE7A 2019-02-17 07:53:01 21.1 21 22.5
003BFE7A 2019-02-17 07:19:42 21.1 22 22.6
003BFE7A 2019-02-17 06:46:22 21.1 22 22.7
003BFE7A 2019-02-17 06:13:03 21.1 22 22.7
003BFE7A 2019-02-17 05:39:45 21.1 22 22.6
003BFE7A 2019-02-17 05:06:26 21.1 22 22.7
003BFE7A 2019-02-17 04:33:08 21.2 22 22.7
003BFE7A 2019-02-17 03:59:50 21.1 23 22.6
003BFE7A 2019-02-17 03:26:31 21.2 23 22.5
003BFE7A 2019-02-17 02:53:11 21.2 23 22.5
003BFE7A 2019-02-17 02:19:51 21.2 24 22.5
003BFE7A 2019-02-17 01:46:31 21.2 24 22.5
003BFE7A 2019-02-17 01:13:12 21.2 24 22.5
003BFE7A 2019-02-17 00:39:53 21.2 24 22.3
003BFE7A 2019-02-17 00:06:35 21.1 24 22.4
003BFE7A 2019-02-16 23:33:17 21.2 24 22.4
003BFE7A 2019-02-16 22:59:59 21.2 24 22.5
003BFE7A 2019-02-16 22:26:40 21.2 24 22.5
003BFE7A 2019-02-16 21:53:20 21.2 25 22.3
003BFE7A 2019-02-16 21:19:59 21.2 25 23
003BFE7A 2019-02-16 20:46:39 21.2 25 23
003BFE7A 2019-02-16 20:13:21 21.2 25 22.9
003BFE7A 2019-02-16 19:40:02 21.2 25 22.9
003BFE7A 2019-02-16 19:06:44 21.1 25 22.8
003BFE7A 2019-02-16 18:33:25 21.1 25 22.9
003BFE7A 2019-02-16 18:00:08 21.2 25 22.9
003BFE7A 2019-02-16 17:26:48 21.3 25 23
003BFE7A 2019-02-16 16:53:29 21.3 25 22.9
003BFE7A 2019-02-16 16:20:08 21.3 25 22.9
003BFE7A 2019-02-16 15:46:48 21.4 25 22.9
003BFE7A 2019-02-16 15:13:28 21.4 25 23
003BFE7A 2019-02-16 14:40:08 21.4 25 22.9
003BFE7A 2019-02-16 14:06:47 21.3 25 23
003BFE7A 2019-02-16 13:33:28 21.3 25 23.1
003BFE7A 2019-02-16 13:00:08 21.3 25 23.1
003BFE7A 2019-02-16 12:26:48 21.3 25 23.1
003BFE7A 2019-02-16 11:53:29 21.3 25 23.1
003BFE7A 2019-02-16 11:20:11 21.3 25 23.1
003BFE7A 2019-02-16 10:46:52 21.2 25 23.3
003BFE7A 2019-02-16 10:13:32 21.2 25 23.1
003BFE7A 2019-02-16 09:40:14 21.2 25 23.1
003BFE7A 2019-02-16 09:06:54 21.2 25 23.2
003BFE7A 2019-02-16 08:33:35 21.2 25 23.1
003BFE7A 2019-02-16 08:00:16 21.2 25 23.1
003BFE7A 2019-02-16 07:26:57 21.2 25 22.4
003BFE7A 2019-02-16 06:52:56 21.2 26 22.3
003BFE7A 2019-02-16 06:19:37 21.2 25 22.3
003BFE7A 2019-02-16 05:46:18 21.2 25 22.3
003BFE7A 2019-02-16 05:12:58 21.2 25 22.3
003BFE7A 2019-02-16 04:39:38 21.2 25 22.2
003BFE7A 2019-02-16 04:06:17 21.2 25 22.2
003BFE7A 2019-02-16 03:32:58 21.2 25 22.2
003BFE7A 2019-02-16 02:59:38 21.2 25 22.1
003BFE7A 2019-02-16 02:26:19 21.2 25 22.1
003BFE7A 2019-02-16 01:53:00 21.3 25 22.1
003BFE7A 2019-02-16 01:19:41 21.2 25 22.1
003BFE7A 2019-02-16 00:46:21 21.3 26 22
003BFE7A 2019-02-16 00:13:01 21.3 26 22.1
003BFE7A 2019-02-15 23:39:43 21.3 26 22
003BFE7A 2019-02-15 23:06:23 21.3 26 21.9
003BFE7A 2019-02-15 22:33:04 21.4 25 22
003BFE7A 2019-02-15 21:59:45 21.4 25 22
003BFE7A 2019-02-15 21:26:27 21.4 25 21.9
003BFE7A 2019-02-15 20:53:08 21.5 25 21.7
003BFE7A 2019-02-15 20:19:49 21.6 25 21.8
003BFE7A 2019-02-15 19:46:30 21.6 25 21.8
003BFE7A 2019-02-15 19:13:10 21.7 25 21.7
003BFE7A 2019-02-15 18:39:51 21.8 25 21.9
003BFE7A 2019-02-15 18:06:32 21.8 25 21.9
003BFE7A 2019-02-15 17:33:13 21.8 25 21.9
003BFE7A 2019-02-15 16:59:54 21.8 24 22.1
003BFE7A 2019-02-15 16:26:37 21.8 24 22
003BFE7A 2019-02-15 15:53:15 21.8 24 22
003BFE7A 2019-02-15 15:19:56 21.8 24 22.1
003BFE7A 2019-02-15 14:46:37 21.8 24 22
003BFE7A 2019-02-15 14:13:17 21.8 24 22
003BFE7A 2019-02-15 13:39:58 21.8 24 22
003BFE7A 2019-02-15 13:06:39 21.7 24 22.1
003BFE7A 2019-02-15 12:33:20 21.7 24 22
003BFE7A 2019-02-15 12:00:00 21.7 24 22.1
003BFE7A 2019-02-15 11:26:41 21.6 24 22
003BFE7A 2019-02-15 10:53:21 21.6 25 22.9
003BFE7A 2019-02-15 10:20:02 21.6 25 22.8
003BFE7A 2019-02-15 09:46:42 21.5 25 22.9
003BFE7A 2019-02-15 09:13:23 21.5 25 23
003BFE7A 2019-02-15 08:40:03 21.4 25 23.1
003BFE7A 2019-02-15 08:06:44 21.4 25 23
003BFE7A 2019-02-15 07:33:24 21.4 25 23
003BFE7A 2019-02-15 07:00:04 21.4 25 23.1
003BFE7A 2019-02-15 06:26:44 21.4 25 23.1
003BFE7A 2019-02-15 05:53:25 21.4 25 23.1
003BFE7A 2019-02-15 05:20:05 21.4 25 22.9
003BFE7A 2019-02-15 04:46:46 21.4 25 22.9
003BFE7A 2019-02-15 04:13:27 21.4 26 22.8
003BFE7A 2019-02-15 03:40:07 21.4 26 22.7
003BFE7A 2019-02-15 03:06:06 21.4 26 22.6
003BFE7A 2019-02-15 02:32:44 21.4 26 22.6
003BFE7A 2019-02-15 01:59:24 21.4 26 22.6
003BFE7A 2019-02-15 01:26:03 21.4 26 22.4
003BFE7A 2019-02-15 00:52:44 21.4 26 22.4
003BFE7A 2019-02-15 00:19:24 21.4 25 22.3
003BFE7A 2019-02-14 23:46:04 21.4 25 22.4
003BFE7A 2019-02-14 23:12:44 21.5 25 22.4
003BFE7A 2019-02-14 22:39:24 21.4 25 22.5
003BFE7A 2019-02-14 22:06:05 21.5 25 22.5
003BFE7A 2019-02-14 21:32:45 21.4 25 22.5
003BFE7A 2019-02-14 20:59:25 21.5 25 21.6
003BFE7A 2019-02-14 20:26:06 21.6 24 21.6
003BFE7A 2019-02-14 19:52:45 21.7 24 21.4
003BFE7A 2019-02-14 19:19:26 21.8 24 21.4
003BFE7A 2019-02-14 18:46:06 21.8 24 21.3
003BFE7A 2019-02-14 18:12:46 21.9 24 21.4
003BFE7A 2019-02-14 17:39:26 21.9 24 21.3
003BFE7A 2019-02-14 17:06:04 22 24 21.2
003BFE7A 2019-02-14 16:32:43 22.1 24 21.2
003BFE7A 2019-02-14 15:59:24 22.1 24 21.2
003BFE7A 2019-02-14 15:26:04 22 24 21.3
003BFE7A 2019-02-14 14:52:43 22 24 21.5
003BFE7A 2019-02-14 14:19:23 21.8 24 21.6
003BFE7A 2019-02-14 13:46:03 21.7 23 21.6
003BFE7A 2019-02-14 13:12:42 21.6 24 21.8
003BFE7A 2019-02-14 12:39:23 21.5 23 21.7
003BFE7A 2019-02-14 12:06:02 21.4 23 21.8
003BFE7A 2019-02-14 11:32:42 21.4 24 22
003BFE7A 2019-02-14 10:59:26 21.2 25 22.1
003BFE7A 2019-02-14 10:26:01 21.1 24 22.4
003BFE7A 2019-02-14 09:52:41 21 24 22.1
003BFE7A 2019-02-14 09:19:21 21 24 22
003BFE7A 2019-02-14 08:46:00 20.8 24 21.9
003BFE7A 2019-02-14 08:12:40 20.8 24 22
003BFE7A 2019-02-14 07:39:19 20.8 25 21.9
003BFE7A 2019-02-14 07:05:59 20.8 25 21.8
003BFE7A 2019-02-14 06:32:39 20.9 25 21.8
003BFE7A 2019-02-14 05:59:18 20.9 25 21.7
003BFE7A 2019-02-14 05:25:58 20.9 25 21.6
003BFE7A 2019-02-14 04:52:37 20.9 25 21.5
003BFE7A 2019-02-14 04:19:18 20.9 25 21.2
003BFE7A 2019-02-14 03:45:56 20.9 25 21.4
003BFE7A 2019-02-14 03:12:37 20.9 25 21.4
003BFE7A 2019-02-14 02:39:17 20.9 25 21.3
003BFE7A 2019-02-14 02:05:56 20.9 25 21.1
003BFE7A 2019-02-14 01:32:36 20.9 25 21.1
003BFE7A 2019-02-14 00:59:15 20.9 25 20.9
003BFE7A 2019-02-14 00:25:54 20.9 25 20.6
003BFE7A 2019-02-13 23:52:32 21 25 20.5
003BFE7A 2019-02-13 23:18:29 21 25 20.5
003BFE7A 2019-02-13 22:45:07 21 25 20.3
003BFE7A 2019-02-13 22:11:47 21.1 25 20.2
003BFE7A 2019-02-13 21:38:28 21.1 25 19.8
003BFE7A 2019-02-13 21:05:08 21.2 25 19.7
003BFE7A 2019-02-13 20:31:48 21.2 25 19.4
003BFE7A 2019-02-13 19:58:28 21.3 25 19.4
003BFE7A 2019-02-13 19:25:07 21.4 25 19.4
003BFE7A 2019-02-13 18:51:48 21.4 25 19.1
003BFE7A 2019-02-13 18:18:27 21.5 26 19
003BFE7A 2019-02-13 17:45:09 21.5 26 19.1
003BFE7A 2019-02-13 17:11:51 21.5 26 19.3
003BFE7A 2019-02-13 16:38:33 21.4 26 19.4
003BFE7A 2019-02-13 16:05:14 21.3 26 19.5
003BFE7A 2019-02-13 15:31:55 21.3 25 19.6
003BFE7A 2019-02-13 14:58:36 21.2 25 19.7
003BFE7A 2019-02-13 14:25:17 21.2 24 19.8
003BFE7A 2019-02-13 13:51:58 21.2 24 19.7
003BFE7A 2019-02-13 13:18:38 21.3 24 19.9
003BFE7A 2019-02-13 12:45:18 21.2 24 19.9
003BFE7A 2019-02-13 12:11:59 21.2 24 20.1
003BFE7A 2019-02-13 11:38:39 21.1 24 20
003BFE7A 2019-02-13 11:05:20 21 24 20
003BFE7A 2019-02-13 10:32:01 21 24 20.2
003BFE7A 2019-02-13 09:58:41 20.9 23 20.2
003BFE7A 2019-02-13 09:25:22 20.9 22 20.1
003BFE7A 2019-02-13 08:52:02 20.8 21 20.1
003BFE7A 2019-02-13 08:18:43 20.8 21 19.9
003BFE7A 2019-02-13 07:45:22 20.8 19 20
003BFE7A 2019-02-13 07:12:01 20.8 19 19.7
003BFE7A 2019-02-13 06:38:41 20.8 19 19.6
003BFE7A 2019-02-13 06:05:20 20.8 19 19.7
003BFE7A 2019-02-13 05:31:59 20.9 19 19.6
003BFE7A 2019-02-13 04:58:42 20.9 19 19.6
003BFE7A 2019-02-13 04:25:21 20.9 19 19.4
003BFE7A 2019-02-13 03:52:02 20.9 19 19.2
003BFE7A 2019-02-13 03:18:42 20.9 19 18.9
003BFE7A 2019-02-13 02:45:22 20.9 18 18.6
003BFE7A 2019-02-13 02:12:03 20.9 18 18.8
003BFE7A 2019-02-13 01:38:43 20.9 18 18.4
003BFE7A 2019-02-13 01:05:24 20.9 18 18.1
003BFE7A 2019-02-13 00:32:05 21 19 18.1
003BFE7A 2019-02-12 23:58:45 21 19 17.9
003BFE7A 2019-02-12 23:25:28 21 19 17.7
003BFE7A 2019-02-12 22:52:05 21 19 17.6
003BFE7A 2019-02-12 22:18:44 21.1 19 19.7
003BFE7A 2019-02-12 21:45:24 21.2 20 19.9
003BFE7A 2019-02-12 21:12:06 21.3 21 19.7
003BFE7A 2019-02-12 20:38:44 21.4 20 19.6
003BFE7A 2019-02-12 20:05:24 21.5 20 19.5
003BFE7A 2019-02-12 19:31:22 21.6 20 19.5
003BFE7A 2019-02-12 18:58:02 21.6 19 19.7
003BFE7A 2019-02-12 18:24:41 21.7 19 19.7
003BFE7A 2019-02-12 17:51:21 21.7 19 19.7
003BFE7A 2019-02-12 17:18:01 21.9 18 19.8
003BFE7A 2019-02-12 16:44:41 22.1 18 19.7
003BFE7A 2019-02-12 16:11:20 22.2 18 19.7
003BFE7A 2019-02-12 15:37:59 22.3 18 19.6
003BFE7A 2019-02-12 15:04:38 22.3 19 19.6
003BFE7A 2019-02-12 14:31:17 21.9 19 19.6
003BFE7A 2019-02-12 13:57:58 21.5 19 19.6
003BFE7A 2019-02-12 13:24:32 21.4 19 19.7
003BFE7A 2019-02-12 12:51:13 21.4 20 19.6
003BFE7A 2019-02-12 12:17:48 21.4 20 19.2
003BFE7A 2019-02-12 11:44:28 21.4 20 19.3
003BFE7A 2019-02-12 11:11:06 21.3 21 19.2
003BFE7A 2019-02-12 10:37:44 21.3 21 19.2
003BFE7A 2019-02-12 10:04:21 21.2 22 19.1
003BFE7A 2019-02-12 09:31:01 21.1 22 19.1
003BFE7A 2019-02-12 08:57:41 21 23 19
003BFE7A 2019-02-12 08:24:21 20.9 23 16.1
003BFE7A 2019-02-12 07:51:01 20.9 24 15.6
003BFE7A 2019-02-12 07:17:45 20.9 25 15.6
003BFE7A 2019-02-12 06:44:21 20.9 26 15.3
003BFE7A 2019-02-12 06:11:00 20.9 26 15.3
003BFE7A 2019-02-12 05:37:39 20.9 26 15.2
003BFE7A 2019-02-12 05:04:20 20.9 26 14.5
003BFE7A 2019-02-12 04:30:58 21 26 14.5
003BFE7A 2019-02-12 03:57:37 21 26 14.2
003BFE7A 2019-02-12 03:24:16 21 26 14.2
003BFE7A 2019-02-12 02:50:55 21 26 14.2
003BFE7A 2019-02-12 02:17:33 21 26 14.2
003BFE7A 2019-02-12 01:44:12 21 27 14.2
003BFE7A 2019-02-12 01:10:51 21 27 14.3
003BFE7A 2019-02-12 00:37:30 21 27 14.3
003BFE7A 2019-02-12 00:04:09 21.1 27 14.4
003BFE7A 2019-02-11 23:30:49 21.1 27 13.9
003BFE7A 2019-02-11 22:57:27 21.2 27 13.8
003BFE7A 2019-02-11 22:24:06 21.2 27 14
003BFE7A 2019-02-11 21:50:44 21.3 27 14.2
003BFE7A 2019-02-11 21:17:22 21.4 27 14.3
003BFE7A 2019-02-11 20:44:01 21.4 27 14.5
003BFE7A 2019-02-11 20:10:42 21.6 27 14.8
003BFE7A 2019-02-11 19:37:19 21.7 27 14.5
003BFE7A 2019-02-11 19:03:57 21.8 27 15.2
003BFE7A 2019-02-11 18:30:36 21.9 27 15.5
003BFE7A 2019-02-11 17:57:15 22.1 27 15.8
003BFE7A 2019-02-11 17:23:53 22.2 27 17.1
003BFE7A 2019-02-11 16:50:32 22.3 28 15.6
003BFE7A 2019-02-11 16:17:08 22.3 31 0